Tracking 30415 objects as of 15-May-2025
HD Live streaming from Space Station
objects crossing your sky now

STARLINK-31336

Track STARLINK-31336 now!
10-day predictions
STARLINK-31336 is classified as:


NORAD ID: 58944
Int'l Code: 2024-027P
Perigee: 481.5 km
Apogee: 483.3 km
Inclination: 53.2 °
Period: 94.1 minutes
Semi major axis: 6853 km
RCS: Unknown
Launch date: February 10, 2024
Source: United States (US)
Launch site: AIR FORCE WESTERN TEST RANGE (AFWTR)
Your satellite tracking list
Your tracking list is empty




NASA's NSSDC Master Catalog

Two Line Element Set (TLE):
1 58944U 24027P   25134.60724987  .00000515  00000-0  29526-4 0  9992
2 58944  53.1619 259.1016 0001340  83.9493 276.1660 15.30185679 71376
Source of the keplerian elements: AFSPC